Location: Gloden
(48.4833°N, 15.3167°E)
Time: 11:15:03
(UTC+00:00)

SMAP - Pass Details

Date: 15 December 2019
Orbit: 681 x 684 km, 98.1° (Epoch: 24 January)

Event Time Altitude Azimuth Distance (km) Brightness Sun altitude
Rises 05:53:01 0° 10° (N) 3,059 6.2 -8.0°
Reaches altitude 10° 05:55:18 10° 6° (N) 2,138 5.4 -7.7°
Maximum altitude 05:59:51 54° 290° (WNW) 831 3.2 -7.0°
Drops below altitude 10° 06:04:22 10° 213° (SSW) 2,121 5.6 -6.3°
Sets 06:06:38 0° 209° (SSW) 3,031 6.4 -6.0°
